Current weather by "City, St" or "zip code"  
 

Current Conditions: Alabaster, Shelby County Airport, AL

Partly Cloudy


65.0 F

Last Updated on Sep 22 2020, 9:53 pm CDT
Humidity: 73%
Wind Speed: N 0.0 mph
Barometer 30.12 in
Dewpoint: 55.9 F
Visibility: 10.00 mi
Precip: --
Heat Index: NA
Wind Chill: NA
Current conditions at:

Alabaster, Shelby County Airport, AL (KEET)

Lat: 33.17833 Lon: 86.78167

Local Radar Image active severe weather and emergency alerts image image weather storm and storm spotter reports image weather observation monitoring service image
Local
Radar
Active
Alerts
Storm Reports Obs
Monitoring

Sign-up For Email & Text Message Weather Alert Notification Services



Advertise Here

Observation History for Alabaster, Shelby County Airport, AL


Time Wind
(mph)
Vis
(mi)
Weather Precip (in) Temperature (F) Relative
Humidity
Wind
Chill
(F)
Heat
Index
(F)
Pressure
Air Dwpt altimeter
(in)
sea level
(mb)
Rmks
9:53 pm CDT N 0.0 10.00 Partly Cloudy -- 65.0 55.9 73% NA NA 30.12 1019.6
8:53 pm CDT N 0.0 10.00 Overcast -- 65.0 55.9 73% NA NA 30.13 1019.8
7:53 pm CDT N 0.0 10.00 Mostly Cloudy -- 65.0 55.9 73% NA NA 30.13 1019.8
6:53 pm CDT N 0.0 10.00 Overcast -- 68.0 55.9 65% NA NA 30.13 1019.9
5:53 pm CDT N 0.0 10.00 Mostly Cloudy -- 70.0 55.9 61% NA NA 30.14 1020.2
4:53 pm CDT 3.5 10.00 A Few Clouds -- 71.0 55.9 59% NA NA 30.13 1020.0
3:53 pm CDT NE 4.6 10.00 Fair -- 72.0 55.9 57% NA NA 30.15 1020.6
2:53 pm CDT 4.6 10.00 Fair -- 72.0 55.9 57% NA NA 30.17 1021.1
1:53 pm CDT E 4.6 10.00 Fair -- 70.0 55.0 59% NA NA 30.19 1021.9
12:53 pm CDT E 6.9 10.00 Fair -- 68.0 53.1 59% NA NA 30.21 1022.6
10:53 am CDT 3.5 10.00 Light Rain Trace 63.0 52.0 68% NA NA 30.26 1024.3
9:53 am CDT E 6.9 10.00 Fair -- 62.0 50.0 65% 62 NA 30.27 1024.6
8:53 am CDT E 8.1 10.00 Fair -- 60.0 51.1 72% 59 NA 30.26 1024.4
7:53 am CDT 4.6 10.00 Fair -- 57.0 50.0 78% 57 NA 30.26 1024.4
6:53 am CDT 3.5 10.00 Fair -- 56.0 50.0 81% NA NA 30.25 1023.9
5:53 am CDT 3.5 10.00 Fair -- 55.0 48.9 80% NA NA 30.24 1023.5
4:53 am CDT E 4.6 10.00 Fair -- 54.0 48.9 83% 53 NA 30.23 1023.4
3:53 am CDT N 0.0 10.00 Fair -- 54.0 48.9 83% NA NA 30.22 1023.0
2:53 am CDT N 0.0 10.00 Fair -- 56.0 48.9 77% NA NA 30.22 1023.1
1:53 am CDT 3.5 10.00 Fair -- 57.0 48.9 74% NA NA 30.24 1023.5
12:53 am CDT 3.5 10.00 Fair -- 56.0 48.9 77% NA NA 30.24 1023.7
11:53 pm CDT NE 3.5 10.00 Fair -- 58.0 48.9 72% NA NA 30.26 1024.2
10:53 pm CDT N 0.0 10.00 Fair -- 59.0 48.9 69% NA NA 30.26 1024.4

Regional Weather Observation


Birmingham, Birmingham International Airport, AL (KBHM)

Mostly Cloudy
65.0 F

Tuscaloosa Regional Airport, AL (KTCL)

A Few Clouds
68.0 F

Jasper Walker County Airport amp; Bevill Field, AL (KJFX)

Mostly Cloudy
66.0 F

Gadsden, Gadsden Municipal Airport, AL (KGAD)

Mostly Cloudy
62.0 F

Folsom Field Airport, AL (K3A1)

Partly Cloudy
82.0 F

Maxwell Air Force Base / Montgomery, AL (KMXF)

Fair
65.0 F